Date String (YYYY-MM-DD hh:mm:ss) UTC,Instrument flags,Ambient pressure (hPa),Sample flow (lpm),Bypass flow (lpm),Sample temperature (°C),Ambient temperature (°C),ASC tube jacket temperature (°C),LED temperature (°C),Box temperature (°C),Sample RH (%),Span deviation,Mass concentration (μg/m³),Mass concentration (μg/m³),Mass concentration (μg/m³)
DateTimeUTC,F1_M11,P_M11,Q1_M11,Q2_M11,T1_M11,T2_M11,T3_M11,T4_M11,T5_M11,U1_M11,ZSPAN_M11,X0_M11,X2_M11,X1_M11
2022-02-03 12:00:00,,0826.5,5.01,0.00,22.0,22.5,00.0,31.0,23.7,03.2,0000.7,0008.98,0005.96,0005.62
2022-02-03 12:01:00,,0826.5,4.99,0.00,22.1,22.7,00.0,31.1,23.8,03.1,0001.9,0008.96,0005.96,0005.63
2022-02-03 12:02:00,,0826.5,5.00,0.00,22.2,22.9,00.0,31.1,24.0,03.1,0002.6,0009.26,0005.93,0005.63
2022-02-03 12:03:00,,0826.5,5.00,0.00,22.4,23.0,00.0,31.1,24.1,03.1,0002.6,0009.13,0005.90,0005.62
2022-02-03 12:04:00,,0826.5,5.01,0.00,22.5,23.2,00.0,31.2,24.2,03.1,0002.3,0009.17,0005.91,0005.62
2022-02-03 12:05:00,,0826.5,5.00,0.00,22.4,22.7,00.0,31.2,23.9,03.1,0002.5,0009.08,0005.93,0005.63
2022-02-03 12:06:00,,0826.5,4.99,0.00,22.2,21.9,00.0,31.2,23.5,03.2,0003.0,0008.99,0005.93,0005.62
2022-02-03 12:07:00,,0826.5,5.01,0.00,21.9,21.2,00.0,31.1,23.0,03.3,0002.6,0008.97,0005.92,0005.62
2022-02-03 12:08:00,,0826.5,4.99,0.00,21.7,20.6,00.0,31.0,22.7,03.3,0002.3,0008.95,0005.91,0005.63
2022-02-03 12:09:00,,0826.5,5.01,0.00,21.7,20.9,00.0,31.0,22.8,03.3,0001.9,0009.12,0005.94,0005.65
2022-02-03 12:10:00,,0826.5,5.00,0.00,21.8,21.4,00.0,31.0,23.1,03.3,0001.9,0009.21,0005.98,0005.67
2022-02-03 12:11:00,,0826.5,5.00,0.00,21.9,21.9,00.0,31.0,23.4,03.2,0001.9,0009.09,0005.98,0005.68
2022-02-03 12:12:00,,0826.5,4.99,0.00,22.0,22.3,00.0,31.0,23.6,03.2,0001.3,0009.16,0005.98,0005.68
2022-02-03 12:13:00,,0826.5,5.01,0.00,22.1,22.6,00.0,31.1,23.7,03.2,0001.1,0009.37,0005.98,0005.68
2022-02-03 12:14:00,,0826.5,5.01,0.00,22.2,22.8,00.0,31.1,23.9,03.2,0000.7,0009.29,0006.00,0005.69
2022-02-03 12:15:00,,0826.5,4.99,0.00,22.3,23.0,00.0,31.1,24.0,03.1,0001.1,0009.28,0006.00,0005.69
2022-02-03 12:16:00,,0826.5,5.01,0.00,22.4,23.1,00.0,31.2,24.1,03.2,0001.6,0009.27,0006.00,0005.69
2022-02-03 12:17:00,,0826.5,5.00,0.00,22.3,22.6,00.0,31.2,23.8,03.2,0001.2,0009.27,0006.00,0005.69
2022-02-03 12:18:00,,0826.5,4.99,0.00,22.1,21.7,00.0,31.1,23.4,03.2,0000.8,0009.26,0006.01,0005.72
2022-02-03 12:19:00,,0826.5,4.99,0.00,21.9,21.0,00.0,31.1,22.9,03.2,0001.1,0009.29,0006.05,0005.74
2022-02-03 12:20:00,,0826.5,5.00,0.00,21.7,20.6,00.0,31.0,22.7,03.3,0001.7,0009.12,0006.03,0005.76
2022-02-03 12:21:00,,0826.5,4.99,0.00,21.7,21.1,00.0,31.0,22.9,03.3,0001.6,0009.00,0006.01,0005.75
2022-02-03 12:22:00,,0826.5,5.01,0.00,21.8,21.6,00.0,31.0,23.2,03.2,0001.9,0008.99,0006.01,0005.75
2022-02-03 12:23:00,,0826.5,5.00,0.00,21.9,22.1,00.0,31.0,23.5,03.2,0002.0,0009.03,0006.03,0005.76
2022-02-03 12:24:00,,0826.5,5.01,0.00,22.0,22.4,00.0,31.0,23.7,03.2,0001.8,0008.48,0006.05,0005.77
2022-02-03 12:25:00,,0826.5,4.99,0.00,22.1,22.7,00.0,31.1,23.8,03.2,0001.4,0008.48,0006.07,0005.79
2022-02-03 12:26:00,,0826.5,5.00,0.00,22.2,23.0,00.0,31.1,24.0,03.2,0000.8,0008.47,0006.08,0005.80
2022-02-03 12:27:00,,0826.5,5.00,0.00,22.3,23.2,00.0,31.2,24.1,03.2,0000.7,0008.46,0006.09,0005.82
2022-02-03 12:28:00,,0826.5,5.01,0.00,22.4,23.1,00.0,31.2,24.1,03.1,0000.4,0008.49,0006.12,0005.84
2022-02-03 12:29:00,,0826.5,5.00,0.00,22.3,22.2,00.0,31.2,23.7,03.1,0000.4,0008.52,0006.12,0005.85
2022-02-03 12:30:00,,0826.6,4.99,0.00,22.0,21.5,00.0,31.1,23.2,03.1,0000.7,0008.54,0006.12,0005.85
2022-02-03 12:31:00,,0826.6,5.01,0.00,21.8,20.8,00.0,31.1,22.9,03.1,0000.8,0008.59,0006.13,0005.85
2022-02-03 12:32:00,,0826.7,5.00,0.00,21.7,20.7,00.0,31.0,22.8,03.2,0000.9,0008.69,0006.16,0005.84
2022-02-03 12:33:00,,0826.7,5.02,0.00,21.7,21.2,00.0,31.0,23.0,03.2,0000.8,0008.74,0006.17,0005.84
2022-02-03 12:34:00,,0826.7,4.99,0.00,21.8,21.8,00.0,31.0,23.3,03.2,0000.2,0008.75,0006.17,0005.84
2022-02-03 12:35:00,,0826.7,5.00,0.00,21.9,22.2,00.0,31.0,23.5,03.2,0000.4,0008.74,0006.17,0005.85
2022-02-03 12:36:00,,0826.7,5.01,0.00,22.0,22.6,00.0,31.1,23.7,03.2,-000.0,0008.77,0006.18,0005.85
2022-02-03 12:37:00,,0826.7,4.99,0.00,22.2,22.9,00.0,31.1,23.9,03.2,0000.8,0008.76,0006.15,0005.84
2022-02-03 12:38:00,,0826.7,5.00,0.00,22.3,23.1,00.0,31.1,24.1,03.1,0000.8,0008.78,0006.15,0005.82
2022-02-03 12:39:00,,0826.7,5.00,0.00,22.4,23.1,00.0,31.2,24.1,03.1,0000.7,0008.80,0006.14,0005.80
2022-02-03 12:40:00,,0826.7,5.01,0.00,22.3,22.4,00.0,31.2,23.8,03.1,0001.1,0008.75,0006.12,0005.78
2022-02-03 12:41:00,,0826.7,4.99,0.00,22.1,21.7,00.0,31.1,23.3,03.1,0000.9,0008.79,0006.13,0005.78
2022-02-03 12:42:00,,0826.7,5.01,0.00,21.8,20.9,00.0,31.1,22.9,03.1,0000.1,0008.78,0006.12,0005.77
2022-02-03 12:43:00,,0826.7,5.00,0.00,21.6,20.6,00.0,31.0,22.7,03.2,0000.0,0008.72,0006.09,0005.78
2022-02-03 12:44:00,,0826.7,4.99,0.00,21.7,21.1,00.0,31.0,23.0,03.2,0000.0,0008.67,0006.09,0005.78
2022-02-03 12:45:00,,0826.7,4.99,0.00,21.8,21.7,00.0,31.0,23.2,03.2,0000.0,0008.69,0006.10,0005.78
2022-02-03 12:46:00,,0826.7,5.01,0.00,21.9,22.1,00.0,31.0,23.5,03.1,0000.0,0008.67,0006.10,0005.78
2022-02-03 12:47:00,,0826.7,5.00,0.00,22.0,22.5,00.0,31.0,23.7,03.1,0000.0,0008.68,0006.11,0005.78
2022-02-03 12:48:00,,0826.7,5.00,0.00,22.1,22.7,00.0,31.1,23.8,03.1,0000.0,0008.87,0006.12,0005.78
2022-02-03 12:49:00,,0826.7,4.99,0.00,22.2,22.9,00.0,31.1,24.0,03.1,0002.1,0009.18,0006.11,0005.79
2022-02-03 12:50:00,,0826.8,5.01,0.00,22.3,23.1,00.0,31.1,24.1,03.1,0003.8,0009.19,0006.12,0005.79
2022-02-03 12:51:00,,0826.8,4.99,0.00,22.4,23.3,00.0,31.2,24.2,03.1,0003.5,0009.24,0006.14,0005.81
2022-02-03 12:52:00,,0826.7,5.01,0.00,22.4,22.8,00.0,31.2,24.0,03.1,0003.3,0009.56,0006.14,0005.81
2022-02-03 12:53:00,,0826.8,5.00,0.00,22.2,22.0,00.0,31.2,23.6,03.2,0003.3,0009.63,0006.15,0005.82
2022-02-03 12:54:00,,0826.8,4.99,0.00,22.0,21.3,00.0,31.1,23.2,03.2,0002.8,0009.73,0006.20,0005.84
2022-02-03 12:55:00,,0826.8,5.01,0.00,21.8,20.9,00.0,31.1,22.9,03.2,0003.0,0009.79,0006.23,0005.86
2022-02-03 12:56:00,,0826.9,4.99,0.00,21.8,21.2,00.0,31.1,23.1,03.2,0002.4,0009.71,0006.20,0005.87
2022-02-03 12:57:00,,0827.0,4.99,0.00,21.9,21.7,00.0,31.1,23.3,03.2,0001.4,0009.72,0006.20,0005.87
2022-02-03 12:58:00,,0826.8,5.00,0.00,22.0,22.1,00.0,31.1,23.5,03.2,0001.0,0009.71,0006.20,0005.89
2022-02-03 12:59:00,,0827.2,5.00,0.00,22.1,22.5,00.0,31.1,23.7,03.2,0000.6,0009.57,0006.20,0005.91
